This is the latest recevied weather packets stored in our database for station/object JH4GLG-13. If no packets are shown the sender has not sent any weather packets the latest 10 day(s).
| Time | Temp. | Humidity | Pressure | Rain* | Wind** | Luminosity | Snow |
|---|---|---|---|---|---|---|---|
| 1777942586 | 22.78° C | 47% | 1021.6 hPa | 0 mm | - | - | - |
| 1777941684 | 20.56° C | 51% | 1021.6 hPa | 0 mm | - | - | - |
| 1777940789 | 18.89° C | 51% | 1021.5 hPa | 0 mm | - | - | - |
| 1777940785 | 18.89° C | 51% | 1021.6 hPa | 0 mm | - | - | - |
| 1777939884 | 19.44° C | 57% | 1021.6 hPa | 0 mm | - | - | - |
| 1777938988 | 17.78° C | 57% | 1021.6 hPa | 0 mm | - | - | - |
| 1777938985 | 17.78° C | 57% | 1021.5 hPa | 0 mm | - | - | - |
| 1777938084 | 18.33° C | 61% | 1021.5 hPa | 0 mm | - | - | - |
| 1777937189 | 17.22° C | 62% | 1021.5 hPa | 0 mm | - | - | - |
| 1777937184 | 17.22° C | 63% | 1021.6 hPa | 0 mm | - | - | - |
| 1777936283 | 15.56° C | 69% | 1021.7 hPa | 0 mm | - | - | - |
| 1777935385 | - | - | 1021.6 hPa | 0 mm | - | - | - |
| 1777934483 | 15.56° C | 71% | 1021.5 hPa | 0 mm | - | - | - |
| 1777933584 | 14.44° C | 75% | 1021.6 hPa | 0 mm | - | - | - |
| 1777932683 | 15° C | 75% | 1021.4 hPa | 0 mm | - | - | - |
| 1777931784 | 13.89° C | 79% | 1021.4 hPa | 0 mm | - | - | - |
| 1777930883 | 12.78° C | 83% | 1021.4 hPa | 0 mm | - | - | - |
| 1777929984 | 11.67° C | 86% | 1021.4 hPa | 0 mm | - | - | - |
| 1777929082 | 11.11° C | 90% | 1021.3 hPa | 0 mm | - | - | - |
| 1777928185 | - | - | 1021 hPa | 0 mm | - | - | - |
| 1777927282 | 10° C | 91% | 1020.8 hPa | 0 mm | - | - | - |
| 1777926384 | 10° C | 91% | 1020.6 hPa | 0 mm | - | - | - |
| 1777925482 | 10° C | 91% | 1020.4 hPa | 0 mm | - | - | - |
| 1777924583 | 10° C | 91% | 1020.2 hPa | 0 mm | - | - | - |
| 1777923682 | 10.56° C | 91% | 1020 hPa | 0 mm | - | - | - |
* Rain latest hour (hover to see other rain measurements)
** Current wind speed in m/s (hover to see current wind gust speed)